Tracking 29892 objects as of 21-Nov-2024
HD Live streaming from Space Station
objects crossing your sky now

STARLINK-6186

Track STARLINK-6186 now!
10-day predictions
STARLINK-6186 is classified as:


NORAD ID: 56908
Int'l Code: 2023-083AJ
Perigee: 565.2 km
Apogee: 567.3 km
Inclination: 43.0 °
Period: 95.8 minutes
Semi major axis: 6937 km
RCS: Unknown
Launch date: June 12, 2023
Source: United States (US)
Launch site: AIR FORCE EASTERN TEST RANGE (AFETR)
Your satellite tracking list
Your tracking list is empty




NASA's NSSDC Master Catalog

Two Line Element Set (TLE):
1 56908U 23083AJ  24325.87785890 -.00000154  00000-0  37035-5 0  9996
2 56908  43.0039 123.6072 0001491 260.3557  99.7117 15.02530636 79745
Source of the keplerian elements: AFSPC